{"data":{"norad_id":64897,"epoch":"2026-05-25T02:23:08.453760Z","epoch_age_seconds":69577,"freshness":"FRESH","line1":"1 64897U 25154J   26145.09940340  .00006000  00000+0  53511-3 0  9991","line2":"2 64897  97.6709 209.9777 0004469 353.7434   6.3731 14.96339026 43939","mean_motion":14.96339026,"eccentricity":0.0004469,"inclination_deg":97.6709,"raan_deg":209.9777,"arg_perigee_deg":353.7434,"mean_anomaly_deg":6.3731,"bstar":0.00053511,"rev_number":4393,"period_min":96.23487558494,"perigee_km":575.11084382599,"apogee_km":581.32843539048,"semimajor_km":6956.3566396082,"source":"CELESTRAK","updated_at":"2026-05-25T13:38:04.896861Z"}}